TimeCST,TemperatureF,Dew PointF,Humidity,Sea Level PressureIn,VisibilityMPH,Wind Direction,Wind SpeedMPH,Gust SpeedMPH,PrecipitationIn,Events,Conditions,WindDirDegrees,DateUTC
12:15 AM,-2.2,-5.8,85,30.26,10.0,Calm,Calm,-,N/A,,Clear,0,2013-01-18 06:15:00
12:35 AM,-2.2,-5.8,85,30.26,10.0,Calm,Calm,-,N/A,,Clear,0,2013-01-18 06:35:00
12:55 AM,-0.4,-4.0,85,30.26,10.0,Calm,Calm,-,N/A,,Clear,0,2013-01-18 06:55:00
1:15 AM,1.4,-2.2,85,30.25,10.0,Calm,Calm,-,N/A,,Scattered Clouds,0,2013-01-18 07:15:00
1:35 AM,1.4,-0.4,92,30.25,10.0,Calm,Calm,-,N/A,,Scattered Clouds,0,2013-01-18 07:35:00
1:55 AM,3.2,1.4,92,30.25,10.0,Calm,Calm,-,N/A,,Mostly Cloudy,0,2013-01-18 07:55:00
2:15 AM,5.0,1.4,85,30.25,10.0,Calm,Calm,-,N/A,,Overcast,0,2013-01-18 08:15:00
2:35 AM,6.8,3.2,85,30.24,10.0,South,3.5,-,N/A,,Overcast,180,2013-01-18 08:35:00
2:55 AM,6.8,3.2,85,30.23,10.0,Calm,Calm,-,N/A,,Mostly Cloudy,0,2013-01-18 08:55:00
3:15 AM,8.6,3.2,79,30.22,10.0,SE,3.5,-,N/A,,Overcast,140,2013-01-18 09:15:00
3:35 AM,6.8,3.2,85,30.20,10.0,Calm,Calm,-,N/A,,Overcast,0,2013-01-18 09:35:00
3:55 AM,6.8,3.2,85,30.18,10.0,SE,3.5,-,N/A,,Overcast,130,2013-01-18 09:55:00
4:15 AM,8.6,5.0,85,30.17,10.0,SSE,3.5,-,N/A,,Overcast,160,2013-01-18 10:15:00
4:35 AM,8.6,6.8,92,30.16,4.0,South,8.1,-,N/A,Snow,Light Snow,170,2013-01-18 10:35:00
4:55 AM,10.4,6.8,85,30.14,1.8,South,4.6,-,N/A,Snow,Light Snow,170,2013-01-18 10:55:00
5:15 AM,10.4,6.8,85,30.14,2.5,South,6.9,-,N/A,Snow,Light Snow,180,2013-01-18 11:15:00
5:35 AM,10.4,8.6,92,30.12,2.0,South,8.1,-,N/A,Snow,Light Snow,170,2013-01-18 11:35:00
5:55 AM,10.4,8.6,92,30.10,1.8,SSE,8.1,-,N/A,Snow,Light Snow,160,2013-01-18 11:55:00
6:15 AM,10.4,8.6,92,30.08,1.8,SSE,8.1,-,N/A,Snow,Light Snow,150,2013-01-18 12:15:00
6:35 AM,12.2,8.6,85,30.06,1.5,SSE,8.1,-,N/A,Snow,Light Snow,160,2013-01-18 12:35:00
6:55 AM,12.2,8.6,85,30.05,1.5,SSE,9.2,-,N/A,Snow,Light Snow,150,2013-01-18 12:55:00
7:15 AM,12.2,8.6,85,30.02,1.8,SSE,10.4,-,N/A,Snow,Light Snow,150,2013-01-18 13:15:00
7:35 AM,12.2,8.6,85,29.99,3.0,SSE,10.4,-,N/A,Snow,Light Snow,150,2013-01-18 13:35:00
7:55 AM,12.2,10.4,92,29.97,1.8,SE,9.2,-,N/A,Snow,Light Snow,140,2013-01-18 13:55:00
8:15 AM,14.0,10.4,86,29.96,7.0,SE,10.4,-,N/A,Snow,Light Snow,140,2013-01-18 14:15:00
8:35 AM,14.0,10.4,86,29.95,10.0,SSE,12.7,-,N/A,Snow,Light Snow,150,2013-01-18 14:35:00
8:55 AM,15.8,10.4,79,29.94,7.0,SSE,11.5,-,N/A,Snow,Light Snow,160,2013-01-18 14:55:00
9:15 AM,15.8,12.2,86,29.94,10.0,South,11.5,-,N/A,,Overcast,170,2013-01-18 15:15:00
9:35 AM,17.6,14.0,86,29.92,10.0,South,12.7,16.1,N/A,,Overcast,170,2013-01-18 15:35:00
9:55 AM,17.6,14.0,86,29.91,10.0,South,10.4,-,N/A,,Overcast,170,2013-01-18 15:55:00
10:15 AM,19.4,15.8,86,29.90,10.0,South,8.1,-,N/A,,Overcast,180,2013-01-18 16:15:00
10:35 AM,21.2,17.6,86,29.87,10.0,South,9.2,18.4,N/A,,Overcast,170,2013-01-18 16:35:00
10:55 AM,21.2,17.6,86,29.85,10.0,South,10.4,-,N/A,,Overcast,170,2013-01-18 16:55:00
11:15 AM,23.0,17.6,80,29.84,10.0,South,11.5,-,N/A,,Mostly Cloudy,180,2013-01-18 17:15:00
11:35 AM,24.8,19.4,80,29.83,10.0,SSW,9.2,-,N/A,,Mostly Cloudy,200,2013-01-18 17:35:00
11:55 AM,26.6,19.4,74,29.81,10.0,SSW,6.9,-,N/A,,Overcast,200,2013-01-18 17:55:00
12:15 PM,26.6,21.2,80,29.79,10.0,SSW,6.9,-,N/A,,Overcast,200,2013-01-18 18:15:00
12:35 PM,28.4,21.2,74,29.77,10.0,South,6.9,-,N/A,,Overcast,190,2013-01-18 18:35:00
12:55 PM,28.4,23.0,80,29.76,10.0,SSW,9.2,-,N/A,,Overcast,200,2013-01-18 18:55:00
1:15 PM,30.2,23.0,75,29.75,10.0,SSW,6.9,-,N/A,,Overcast,200,2013-01-18 19:15:00
1:35 PM,30.2,24.8,80,29.74,10.0,SSW,8.1,-,N/A,,Mostly Cloudy,210,2013-01-18 19:35:00
1:55 PM,30.2,24.8,80,29.73,10.0,SSW,6.9,-,N/A,,Scattered Clouds,210,2013-01-18 19:55:00
2:15 PM,32.0,24.8,75,29.73,10.0,SW,8.1,-,N/A,,Scattered Clouds,220,2013-01-18 20:15:00
2:35 PM,33.8,26.6,75,29.72,10.0,SW,3.5,-,N/A,,Scattered Clouds,230,2013-01-18 20:35:00
2:55 PM,33.8,26.6,75,29.71,10.0,South,3.5,-,N/A,,Scattered Clouds,170,2013-01-18 20:55:00
3:15 PM,33.8,26.6,75,29.72,10.0,SSW,3.5,-,N/A,,Mostly Cloudy,210,2013-01-18 21:15:00
3:35 PM,33.8,26.6,75,29.71,10.0,SSW,3.5,-,N/A,,Mostly Cloudy,200,2013-01-18 21:35:00
3:55 PM,33.8,26.6,75,29.71,10.0,Calm,Calm,-,N/A,,Mostly Cloudy,0,2013-01-18 21:55:00
4:15 PM,33.8,26.6,75,29.71,10.0,Calm,Calm,-,N/A,,Mostly Cloudy,0,2013-01-18 22:15:00
4:35 PM,33.8,26.6,75,29.73,10.0,Calm,Calm,-,N/A,,Overcast,0,2013-01-18 22:35:00
4:55 PM,33.8,26.6,75,29.72,10.0,Calm,Calm,-,N/A,,Overcast,0,2013-01-18 22:55:00
5:15 PM,32.0,26.6,80,29.72,10.0,Calm,Calm,-,N/A,,Overcast,0,2013-01-18 23:15:00
5:35 PM,30.2,26.6,86,29.70,10.0,SE,3.5,-,N/A,,Mostly Cloudy,130,2013-01-18 23:35:00
5:55 PM,32.0,26.6,80,29.69,10.0,SSE,4.6,-,N/A,,Scattered Clouds,150,2013-01-18 23:55:00
6:15 PM,30.2,26.6,86,29.70,10.0,Calm,Calm,-,N/A,,Clear,0,2013-01-19 00:15:00
6:35 PM,30.2,26.6,86,29.70,10.0,Calm,Calm,-,N/A,,Mostly Cloudy,0,2013-01-19 00:35:00
6:55 PM,28.4,26.6,93,29.71,10.0,Calm,Calm,-,N/A,,Overcast,0,2013-01-19 00:55:00
7:15 PM,28.4,26.6,93,29.71,10.0,Calm,Calm,-,N/A,,Overcast,0,2013-01-19 01:15:00
7:35 PM,30.2,26.6,86,29.71,10.0,Calm,Calm,-,N/A,,Overcast,0,2013-01-19 01:35:00
7:55 PM,26.6,24.8,93,29.71,7.0,Calm,Calm,-,N/A,,Scattered Clouds,0,2013-01-19 01:55:00
8:15 PM,24.8,24.8,100,29.71,7.0,Calm,Calm,-,N/A,,Scattered Clouds,0,2013-01-19 02:15:00
8:35 PM,23.0,21.2,93,29.71,1.8,Calm,Calm,-,N/A,,Mostly Cloudy,0,2013-01-19 02:35:00
8:55 PM,23.0,21.2,93,29.72,5.0,Calm,Calm,-,N/A,,Scattered Clouds,0,2013-01-19 02:55:00
9:15 PM,19.4,19.4,100,29.72,2.0,Calm,Calm,-,N/A,,Clear,0,2013-01-19 03:15:00
9:35 PM,19.4,19.4,100,29.73,4.0,Calm,Calm,-,N/A,,Scattered Clouds,0,2013-01-19 03:35:00
9:55 PM,19.4,19.4,100,29.72,3.0,Calm,Calm,-,N/A,,Scattered Clouds,0,2013-01-19 03:55:00
10:15 PM,19.4,17.6,93,29.72,1.8,Calm,Calm,-,N/A,,Clear,0,2013-01-19 04:15:00
10:35 PM,19.4,17.6,93,29.72,7.0,Calm,Calm,-,N/A,,Scattered Clouds,0,2013-01-19 04:35:00
10:55 PM,21.2,19.4,93,29.72,7.0,Calm,Calm,-,N/A,,Mostly Cloudy,0,2013-01-19 04:55:00
11:15 PM,24.8,24.8,100,29.71,10.0,Calm,Calm,-,N/A,,Overcast,0,2013-01-19 05:15:00
11:35 PM,24.8,24.8,100,29.73,10.0,Calm,Calm,-,N/A,,Overcast,0,2013-01-19 05:35:00
11:55 PM,26.6,24.8,93,29.72,10.0,Calm,Calm,-,N/A,,Overcast,0,2013-01-19 05:55:00